Flag for Germany Weather past 2 weeks in Leipzig, Saxony, Germany

Now
61 °F

Partly sunny.


Feels Like: 61 °F
Forecast: 56 / 66 °F
Wind: 8 mph from Southwest

Location: Leipzig-Schkeuditz

Current Time: Aug 30, 2014 at 8:52:11 AM

Latest Report: Aug 30, 2014 at 7:50 AM


Visibility: 5 mi

Pressure: 30.04 "Hg

Humidity: 94%

Dew point: 59 °F

Location of LeipzigLocation

Historic Weather in Leipzig — Graph

°F

Leipzig temperature yesterday

Maximum temperature yesterday: 72 °F (at 5:20 PM)
Minimum temperature yesterday: 59 °F (at 1:20 AM)
Average temperature yesterday: 65 °F

Past Weeks' High & Low Weather Summary

 TemperatureHumidityPressure
High73 °F (Aug 28, 3:50 PM)100% (Aug 15, 10:50 PM)30.09 "Hg (Aug 15, 10:50 PM)
Low48 °F (Aug 20, 3:50 AM)35% (Aug 22, 2:20 PM)29.68 "Hg (Aug 18, 11:20 AM)
Average59 °F75%29.93 "Hg
* Reported Aug 15 7:20 AM — Aug 30 7:20 AM, Leipzig, Weather by CustomWeather, © 2014

Note: Actual official high and low records may vary slightly from our data, if they occured in-between our weather recording intervals... More about our weather records

Advertising

Leipzig weather history for previous 24 hours

 ConditionsComfort  
Time TempWeatherWind HumidityBarometerVisibility
7:20 AM
Aug 30
61 °FBroken clouds.6 mph100%30.04 "Hg5 mi
6:50 AM61 °FPartly cloudy.6 mph94%30.04 "Hg4 mi
6:20 AM61 °FPassing clouds.5 mph94%30.04 "Hg5 mi
5:50 AM61 °FClear.6 mph100%30.04 "Hg10 mi
5:20 AM61 °FClear.6 mph100%30.04 "Hg10 mi
4:50 AM61 °FClear.7 mph100%30.04 "Hg10 mi
4:20 AM61 °FPassing clouds.3 mph94%30.04 "HgN/A
3:50 AM61 °FPassing clouds.6 mph100%30.04 "HgN/A
3:20 AM61 °FPassing clouds.8 mph100%30.04 "HgN/A
2:50 AM63 °FSprinkles. Partly cloudy.8 mph94%30.04 "HgN/A
2:20 AM63 °FSprinkles. Partly cloudy.8 mph94%30.04 "HgN/A
1:50 AM63 °FSprinkles. Partly cloudy.5 mph94%30.04 "HgN/A
1:20 AM63 °FPassing clouds.3 mph94%30.01 "HgN/A
12:50 AM63 °FPartly cloudy.2 mph94%30.01 "HgN/A
12:20 AM63 °FPassing clouds.2 mph94%30.01 "HgN/A
11:50 PM
Aug 29
63 °FPassing clouds.5 mph94%30.04 "HgN/A
11:20 PM63 °FPassing clouds.2 mph94%30.04 "HgN/A
9:20 PM63 °FPassing clouds.6 mph88%30.01 "HgN/A
8:50 PM63 °FSunny.6 mph83%30.01 "Hg10 mi
8:20 PM64 °FSunny.5 mph73%29.98 "Hg10 mi
7:50 PM68 °FPassing clouds.2 mph64%29.98 "HgN/A
7:20 PM70 °FPassing clouds.3 mph60%29.98 "HgN/A
6:50 PM70 °FPassing clouds.3 mph64%29.98 "HgN/A
6:20 PM70 °FScattered clouds.6 mph64%29.98 "HgN/A
5:50 PM70 °FScattered clouds.5 mph60%29.98 "HgN/A
5:20 PM72 °FScattered clouds.7 mph65%29.98 "HgN/A
4:50 PM70 °FBroken clouds.7 mph73%29.98 "HgN/A
4:20 PM70 °FBroken clouds.7 mph78%29.98 "HgN/A
3:50 PM68 °FBroken clouds.8 mph78%29.98 "HgN/A
3:20 PM68 °FPartly sunny.8 mph78%29.98 "HgN/A
2:50 PM68 °FPartly sunny.16 mph78%29.98 "HgN/A
2:20 PM70 °FPartly sunny.12 mph73%29.98 "HgN/A
1:50 PM70 °FPartly sunny.13 mph73%29.98 "HgN/A
1:20 PM70 °FPartly sunny.8 mph73%29.98 "HgN/A
12:50 PM70 °FBroken clouds.7 mph73%29.98 "HgN/A
12:20 PM70 °FBroken clouds.6 mph78%29.98 "HgN/A
11:50 AM68 °FPartly sunny.7 mph78%29.98 "HgN/A
11:20 AM66 °FScattered showers. Partly sunny.7 mph83%29.98 "HgN/A
10:50 AM64 °FSprinkles. Broken clouds.8 mph83%29.98 "HgN/A
10:20 AM66 °FSprinkles. Broken clouds.8 mph78%29.98 "HgN/A
9:50 AM66 °FScattered showers. Broken clouds.9 mph78%29.98 "HgN/A
9:20 AM66 °FSunny.9 mph73%29.98 "Hg10 mi
8:50 AM64 °FSunny.9 mph78%29.98 "Hg10 mi
8:20 AM64 °FPartly sunny.9 mph78%29.98 "HgN/A
Weather by CustomWeather, © 2014

See weather overviewHow to use our weather pages